Location: Newark
(49.8753°N, 23.0797°E)
Time: 04:02:08
(UTC+00:00)

X-37B - Pass Details

Date: 29 June 2021
Orbit: 383 x 392 km, 45.0° (Epoch: 01 July)

Event Time Altitude Azimuth Distance (km) Brightness Sun altitude
Rises 21:08:11 0° 267° (W) 2,258 4.7 -14.7°
Reaches altitude 10° 21:10:35 10° 250° (WSW) 1,402 3.4 -14.8°
Enters shadow 21:12:17 19° 219° (SW) 1,005 2.4 -14.9°
